Date,TemperatureHighF,TemperatureAvgF,TemperatureLowF,DewpointHighF,DewpointAvgF,DewpointLowF,HumidityHigh,HumidityAvg,HumidityLow,PressureMaxIn,PressureMinIn,WindSpeedMaxMPH,WindSpeedAvgMPH,GustSpeedMaxMPH,PrecipitationSumIn
2013-1-1,40.9,34.4,28.4,34.8,30.9,27.0,96,87,73,30.54,30.39,7,1,7,0.00
2013-1-2,45.8,37.5,31.8,35.2,29.2,23.0,92,72,57,30.39,30.23,8,0,8,0.00
2013-1-3,44.4,36.3,30.2,35.5,28.2,21.5,96,74,45,30.24,30.13,15,1,15,0.28
2013-1-4,49.7,43.3,36.5,44.4,40.8,35.4,98,91,80,30.34,30.20,21,4,21,0.02
2013-1-5,44.4,42.7,40.8,40.0,36.7,33.4,95,80,66,30.24,30.15,15,2,16,0.08
2013-1-6,44.4,42.1,39.4,40.2,38.9,37.5,94,88,80,30.22,30.01,21,6,22,0.02
2013-1-7,49.7,45.9,40.2,47.1,43.2,38.6,96,90,83,30.19,29.82,40,8,40,0.06
2013-1-8,51.1,46.2,40.9,48.6,44.1,39.3,98,93,86,30.19,29.76,39,8,46,0.55
2013-1-9,49.2,40.1,35.3,47.8,38.5,33.9,97,94,85,29.98,29.70,30,4,35,0.95
2013-1-10,37.4,35.4,33.5,35.6,33.2,27.9,95,92,77,30.13,29.97,12,2,12,0.04
2013-1-11,36.2,31.8,27.6,29.1,27.2,21.7,96,83,67,30.37,30.15,7,1,11,0.00
2013-1-12,36.4,29.7,25.7,29.3,25.5,23.6,97,85,66,30.48,30.35,8,1,9,0.00
2013-1-13,36.2,30.1,24.6,29.6,26.5,23.5,97,87,67,30.53,30.48,5,1,5,0.01
2013-1-14,36.9,34.2,32.3,32.4,29.7,26.8,89,83,75,30.61,30.51,7,1,7,0.00
2013-1-15,43.7,36.8,33.0,36.0,31.8,29.6,91,82,68,30.74,30.60,8,0,8,0.00
2013-1-16,42.9,35.4,28.0,35.4,31.5,26.8,97,86,71,30.72,30.55,7,1,7,0.00
2013-1-17,37.7,33.6,27.7,35.7,32.3,26.7,97,95,90,30.56,30.33,5,0,5,0.00
2013-1-18,36.8,33.7,31.1,36.3,33.1,30.6,98,98,97,30.39,30.30,7,0,7,0.00
2013-1-19,35.1,33.2,31.3,34.5,32.6,30.8,98,98,97,30.43,30.38,5,0,6,0.00
2013-1-20,44.2,36.1,32.1,38.9,34.8,31.6,99,95,80,30.43,30.30,7,0,8,0.00
2013-1-21,36.6,33.4,30.8,36.0,32.7,30.3,98,97,94,30.32,30.17,8,1,8,0.00
2013-1-22,39.4,34.7,30.2,37.0,33.2,29.4,98,95,87,30.18,29.94,6,0,6,0.00
2013-1-23,41.9,40.5,38.5,40.4,37.0,32.8,96,88,73,30.17,29.88,18,3,18,0.32
2013-1-24,44.4,41.6,39.6,40.5,38.5,36.1,97,89,74,30.24,30.09,15,3,17,0.15
2013-1-25,51.2,45.3,41.5,44.7,42.1,37.9,98,89,73,30.09,29.96,21,4,21,0.06
2013-1-26,43.4,41.5,39.8,40.3,38.7,37.3,95,90,85,30.07,29.91,23,6,23,0.27
2013-1-27,41.1,40.0,39.2,38.7,37.5,36.0,95,91,87,30.09,30.02,21,5,21,0.02
2013-1-28,41.6,40.0,38.2,40.5,38.5,36.7,96,94,92,30.13,30.04,13,2,13,0.28
2013-1-29,46.5,44.0,41.3,45.0,42.7,39.9,97,95,91,30.37,30.12,23,3,23,0.36
2013-1-30,47.2,45.7,43.5,46.6,45.2,42.5,99,98,96,30.42,30.35,10,2,10,0.21
2013-1-31,48.2,46.1,45.0,45.6,44.8,43.8,99,95,86,30.43,30.33,24,4,24,0.09
2013-2-1,51.7,44.9,40.8,46.3,43.3,39.6,98,94,81,30.44,30.36,10,1,10,0.01
2013-2-2,43.0,40.0,38.0,40.9,38.9,37.3,98,96,90,30.42,30.29,10,1,10,0.00
2013-2-3,46.8,43.2,38.4,43.0,41.3,37.9,98,93,85,30.34,30.24,14,3,14,0.08
2013-2-4,49.9,45.7,43.5,43.0,41.9,40.9,94,87,76,30.24,29.92,13,2,13,0.00
2013-2-5,45.2,44.1,43.7,42.1,41.6,41.5,93,91,88,29.93,29.89,17,7,17,0.04
2013-2-6,43.7,43.7,43.7,41.5,41.5,41.5,92,92,92,29.89,29.89,9,9,14,0.04
2013-2-7,43.7,43.7,43.7,41.5,41.5,41.5,92,92,92,29.89,29.89,9,9,14,0.04
2013-2-8,43.7,43.7,43.7,41.5,41.5,41.5,92,92,92,29.89,29.89,9,9,14,0.04
2013-2-9,43.7,43.7,43.7,41.5,41.5,41.5,92,92,92,29.89,29.89,9,9,14,0.04
2013-2-10,43.7,43.7,43.7,41.5,41.5,41.5,92,92,92,29.89,29.89,9,9,14,0.04
2013-2-11,43.7,43.7,43.7,41.5,41.5,41.5,92,92,92,29.89,29.89,9,9,14,0.04
2013-2-12,43.7,43.7,43.7,41.5,41.5,41.5,92,92,92,29.89,29.89,9,9,14,0.04
2013-2-13,43.7,43.7,43.7,41.5,41.5,41.5,92,92,92,29.89,29.89,9,9,14,0.04
2013-2-14,43.7,43.7,43.7,41.5,41.5,41.5,92,92,92,29.89,29.89,9,9,14,0.04
2013-2-15,54.1,45.7,40.5,45.4,42.3,39.1,98,89,71,30.58,30.21,14,1,14,0.00
2013-2-16,51.6,44.4,40.3,43.5,41.5,37.4,98,90,65,30.23,30.14,24,4,24,0.15
2013-2-17,45.6,40.9,38.8,39.9,37.1,35.3,95,86,70,30.28,30.15,12,2,12,0.03
2013-2-18,44.5,41.5,38.4,38.1,36.9,35.3,95,84,72,30.15,29.80,17,2,17,0.00
2013-2-19,49.1,41.9,37.5,39.4,36.6,33.6,94,82,58,30.05,29.77,16,1,16,0.00
2013-2-20,43.4,39.8,37.1,39.0,37.1,34.8,95,90,80,30.08,30.03,18,2,18,0.11
2013-2-21,42.9,41.3,39.4,39.9,38.4,36.8,96,90,84,30.11,30.04,28,8,29,0.06
2013-2-22,46.1,41.5,37.3,41.9,38.1,33.4,94,88,78,30.08,29.72,42,11,42,0.10
2013-2-23,48.3,41.9,37.9,38.2,36.2,34.0,90,81,62,30.41,29.93,19,3,19,0.00
2013-2-24,46.1,43.5,39.7,37.7,36.1,34.1,86,75,63,30.41,29.98,35,8,35,0.00
2013-2-25,54.0,43.6,38.4,39.0,35.8,28.4,92,76,39,30.34,29.91,32,7,35,0.11
2013-2-26,46.0,42.2,37.6,36.3,34.5,31.6,89,74,58,30.38,30.23,21,5,22,0.01
2013-2-27,47.5,43.1,40.0,42.5,39.9,35.8,96,89,75,30.34,30.24,22,2,22,0.20
2013-2-28,51.5,46.4,41.6,49.8,45.2,40.8,98,96,93,30.36,30.22,25,4,26,0.23
2013-3-1,55.6,52.1,49.3,50.4,49.4,48.2,98,91,82,30.40,30.31,32,10,32,0.08
2013-3-2,55.2,48.8,37.6,49.1,44.6,36.0,95,86,75,30.31,30.10,24,6,24,0.19
2013-3-3,50.2,41.0,35.7,38.9,35.0,31.0,95,80,51,30.34,30.23,12,1,12,0.00
2013-3-4,52.4,41.8,31.6,37.7,31.1,25.6,91,68,40,30.34,29.96,10,1,10,0.00
2013-3-5,49.5,44.0,40.6,39.8,34.5,24.9,92,70,50,29.96,29.76,9,0,9,0.00
2013-3-6,42.4,41.1,39.7,40.6,39.2,37.8,96,93,87,29.93,29.61,18,3,18,0.68
2013-3-7,51.1,44.2,40.6,42.5,40.4,38.4,96,87,66,30.13,29.93,15,3,15,0.24
2013-3-8,51.0,42.8,36.6,41.6,38.0,35.5,97,84,63,30.28,30.11,13,1,13,0.01
2013-3-9,54.5,43.1,33.1,42.9,37.3,32.0,98,82,54,30.53,30.28,10,1,10,0.00
2013-3-10,47.3,42.6,38.8,41.4,39.1,36.4,94,88,69,30.53,30.47,6,1,6,0.01
2013-3-11,50.4,45.7,40.9,45.6,41.9,39.4,96,87,71,30.48,30.19,15,1,15,0.03
2013-3-12,53.6,50.5,47.6,49.9,47.8,45.6,98,91,77,30.19,30.10,30,12,30,0.02
2013-3-13,51.2,50.1,49.1,49.6,48.2,46.9,95,93,90,30.24,30.13,28,8,29,0.15
2013-3-14,51.7,49.8,47.2,48.3,46.2,44.1,97,87,76,30.18,30.06,23,5,23,0.01
2013-3-15,56.8,50.8,47.6,49.6,47.4,44.9,97,88,75,30.25,30.17,24,7,24,0.00
2013-3-16,49.1,45.5,38.2,45.2,41.1,34.7,91,85,69,30.17,29.91,40,8,40,0.01
2013-3-17,47.9,40.6,37.9,37.5,35.0,32.6,92,81,59,30.23,30.01,21,4,21,0.05
2013-3-18,49.6,41.4,38.6,39.2,36.7,34.8,91,84,62,30.24,30.13,33,8,33,0.00
2013-3-20,49.4,42.8,38.5,40.2,35.5,31.9,80,75,66,30.05,29.74,32,10,32,0.63
2013-3-21,46.7,39.2,35.1,36.8,34.2,32.0,94,83,63,30.26,30.05,21,4,21,0.04
2013-3-22,48.4,38.7,33.3,36.2,31.5,26.3,95,77,43,30.42,30.25,7,1,13,0.04
2013-3-23,51.4,40.9,34.0,33.3,29.6,24.3,88,67,36,30.44,30.34,11,2,11,0.00
2013-3-24,55.4,43.0,32.8,36.5,31.2,27.9,87,65,40,30.34,30.16,4,1,5,0.00
2013-3-25,60.4,49.4,38.6,37.4,30.0,25.5,69,48,30,30.17,29.97,11,1,11,0.00
2013-3-26,62.0,50.5,44.5,40.9,37.7,32.8,78,62,40,30.06,29.99,10,1,10,0.00
2013-3-27,58.1,49.4,44.6,46.9,41.9,35.3,91,76,56,30.03,29.97,6,0,6,0.04
2013-3-28,62.9,51.6,44.8,49.8,45.6,42.7,96,81,53,30.18,30.02,11,1,11,0.02
2013-3-29,64.8,53.3,44.8,48.4,44.9,42.2,95,75,47,30.28,30.18,11,1,11,0.01
2013-3-30,61.8,51.9,41.3,48.1,44.3,40.2,98,77,59,30.29,30.11,14,2,14,0.00
2013-3-31,66.2,55.8,45.4,47.0,43.0,40.0,83,63,45,30.11,29.95,11,1,12,0.00
2013-4-1,60.4,51.6,46.7,48.8,46.1,42.5,94,82,62,30.19,30.00,17,5,17,0.00
2013-4-2,56.3,50.9,47.8,47.3,45.0,43.5,88,80,70,30.23,30.19,18,4,18,0.00
2013-4-3,62.1,52.8,44.5,48.4,45.0,42.8,95,76,52,30.23,29.99,10,0,10,0.00
2013-4-4,55.6,51.2,48.2,52.9,48.5,44.1,97,90,82,29.99,29.68,24,3,25,0.46
2013-4-5,54.7,51.1,47.6,50.4,48.0,45.3,97,89,78,29.90,29.76,29,9,32,0.64
2013-4-6,50.6,47.0,44.1,46.9,43.5,40.8,95,88,79,29.96,29.73,30,9,30,0.45
2013-4-7,44.7,42.3,38.7,43.2,40.6,37.3,97,94,90,29.93,29.55,15,2,15,1.01
2013-4-8,56.7,47.3,41.5,45.5,42.5,39.6,96,84,61,30.31,29.93,13,2,13,0.05
2013-4-9,53.2,48.4,43.3,42.7,41.1,38.7,90,76,59,30.39,30.22,18,3,18,0.00
2013-4-10,57.4,51.2,47.2,50.0,45.4,41.6,96,81,65,30.29,29.98,27,5,28,0.23
2013-4-11,54.7,47.0,43.3,43.2,39.3,34.3,94,76,49,30.34,30.23,15,2,15,0.07
2013-4-12,44.7,42.6,39.8,43.2,38.6,36.1,96,86,73,30.23,29.71,27,6,30,0.18
2013-4-13,47.9,41.2,36.4,42.2,37.7,33.4,95,88,75,30.05,29.79,26,4,26,0.66
2013-4-14,53.6,44.4,38.3,42.9,37.3,29.6,96,78,43,30.05,29.96,11,1,11,0.05
2013-4-15,53.8,45.3,38.5,42.3,38.7,34.8,96,79,52,30.22,29.99,16,1,16,0.00
2013-4-16,57.2,46.2,37.0,42.7,37.6,30.4,97,75,42,30.43,30.22,14,1,14,0.00
2013-4-17,57.7,48.0,39.8,42.9,38.1,32.3,87,70,40,30.49,30.43,16,3,16,0.00
2013-4-18,49.7,46.4,42.7,46.9,42.1,37.8,95,85,75,30.49,30.24,29,6,29,0.15
2013-4-19,52.9,49.7,47.0,51.7,48.2,45.6,97,95,91,30.24,30.10,34,5,34,0.51
2013-4-20,55.9,48.5,45.5,48.8,45.4,43.2,96,89,70,30.32,30.23,15,3,15,0.25
2013-4-21,53.5,46.1,43.3,44.6,41.4,36.6,95,84,63,30.41,30.27,17,3,17,0.04
2013-4-22,57.2,48.7,39.2,41.5,33.9,18.8,94,61,24,30.57,30.41,18,2,18,0.00
2013-4-23,62.7,51.0,39.3,40.3,34.2,24.3,89,56,25,30.47,30.28,16,2,16,0.00
2013-4-24,68.6,56.1,41.5,43.8,36.7,30.6,88,52,26,30.36,30.09,14,1,14,0.00
2013-4-25,72.4,58.7,44.8,46.9,38.4,31.8,87,50,27,30.17,30.07,10,1,10,0.00
2013-4-26,67.0,54.3,45.5,50.6,46.3,42.3,96,76,52,30.29,30.17,13,2,13,0.00
2013-4-27,55.2,52.7,50.2,47.3,44.3,39.1,89,73,58,30.25,30.18,31,7,31,0.00
2013-4-28,58.4,50.2,45.9,47.8,44.3,39.6,94,81,57,30.26,29.98,25,5,26,0.00
2013-4-29,56.4,47.8,42.6,46.3,38.9,31.9,96,73,42,30.20,29.94,18,3,18,0.12
2013-4-30,56.1,46.1,36.8,39.2,34.3,29.1,90,66,41,30.48,30.20,13,1,13,0.06
2013-5-1,61.6,50.3,37.3,41.1,34.6,27.4,90,58,29,30.62,30.48,13,2,13,0.00
2013-5-2,65.7,54.7,45.0,44.4,38.8,33.4,76,56,41,30.59,30.41,19,2,19,0.00
2013-5-3,67.3,57.6,46.8,48.8,44.7,38.6,81,63,47,30.43,30.26,14,2,14,0.00
2013-5-4,72.8,62.5,52.4,49.8,44.6,35.6,77,54,30,30.27,30.03,19,3,19,0.00
2013-5-5,77.8,67.3,53.4,49.3,44.2,37.8,68,45,24,30.03,29.81,18,2,18,0.00
2013-5-6,84.2,69.8,55.0,50.2,46.0,41.9,68,45,23,29.88,29.78,15,1,15,0.00
2013-5-7,70.9,58.2,50.4,54.1,50.5,47.9,92,76,54,30.04,29.85,18,4,18,0.00
2013-5-8,65.3,55.4,50.1,52.3,49.4,47.2,91,81,61,30.18,30.04,15,3,15,0.00
2013-5-9,69.9,56.1,48.0,55.2,50.0,46.8,97,82,46,30.26,30.16,8,0,8,0.00
2013-5-10,80.0,62.0,47.5,55.7,50.2,46.3,97,69,35,30.25,30.15,9,0,9,0.00
2013-5-11,80.0,63.7,52.7,53.0,49.2,43.8,86,62,36,30.21,30.02,13,2,14,0.00
2013-5-12,68.9,61.5,57.3,56.7,54.9,51.3,92,79,62,30.13,30.05,19,6,19,0.11
2013-5-13,61.4,55.5,48.3,54.7,49.9,40.8,92,82,61,30.22,29.97,39,8,39,0.37
2013-5-14,67.1,54.6,47.3,45.0,42.2,38.4,86,65,37,30.26,30.15,12,2,15,0.00
2013-5-15,66.0,53.9,46.0,50.7,46.0,38.6,94,76,43,30.16,30.05,16,2,18,0.04
2013-5-16,69.8,59.3,52.5,53.5,50.8,47.3,94,75,46,30.06,29.90,13,2,13,0.00
2013-5-17,62.6,55.9,51.7,50.3,48.2,44.1,90,76,56,30.10,29.98,20,6,20,0.00
2013-5-18,62.2,55.0,50.5,48.1,46.3,43.8,89,73,56,30.31,30.10,15,3,15,0.00
2013-5-19,65.4,56.5,49.4,51.3,48.1,45.3,87,74,54,30.44,30.31,11,1,11,0.00
2013-5-20,68.3,54.5,46.3,50.6,47.0,43.8,93,77,46,30.39,29.94,16,2,16,0.00
2013-5-21,55.9,49.1,45.0,48.9,45.2,43.1,94,87,68,29.95,29.82,17,3,17,0.46
2013-5-22,53.0,47.5,44.1,47.0,44.3,42.1,95,89,75,29.98,29.89,17,3,18,0.06
2013-5-23,55.6,48.4,44.0,46.9,43.7,41.4,94,84,62,30.06,29.97,22,3,23,0.06
2013-5-24,62.5,52.8,45.3,48.6,45.3,41.6,95,77,50,30.09,30.01,17,3,17,0.01
2013-5-25,62.9,54.5,49.5,48.9,46.3,42.3,89,75,50,30.08,30.00,16,3,16,0.00
2013-5-26,62.9,54.2,48.6,53.5,49.7,46.6,95,85,68,30.03,29.98,17,3,17,0.10
2013-5-27,57.8,54.7,51.5,55.4,51.8,48.2,94,90,84,30.01,29.75,18,3,18,0.42
2013-5-28,59.9,54.7,51.3,52.1,48.9,46.2,92,81,69,29.92,29.81,21,6,21,0.02
2013-5-29,58.9,53.1,48.7,51.7,48.4,46.6,96,84,68,30.00,29.73,21,2,21,0.14
2013-5-30,60.6,53.6,48.7,48.0,46.2,44.7,88,77,60,30.28,30.00,23,7,23,0.00
2013-5-31,68.8,57.4,49.8,49.0,45.9,40.3,90,68,38,30.38,30.28,11,1,11,0.00
2013-6-1,72.2,59.4,50.5,50.6,46.6,41.0,86,64,38,30.29,30.09,18,2,19,0.00
2013-6-2,70.8,60.9,52.1,52.3,49.6,44.8,90,67,46,30.13,30.08,16,1,17,0.01
2013-6-3,72.8,59.2,50.4,54.6,50.9,48.8,95,76,48,30.17,30.09,11,2,11,0.00
2013-6-4,75.7,64.4,51.2,55.2,50.5,43.6,91,63,41,30.17,30.06,14,1,14,0.00
2013-6-5,75.7,64.8,53.8,58.0,52.5,45.8,80,65,46,30.13,30.07,14,1,14,0.00
2013-6-6,79.9,63.0,51.7,54.3,49.6,42.3,94,64,29,30.09,30.04,11,0,11,0.00
2013-6-7,66.5,60.1,54.7,55.5,49.2,41.9,81,68,50,30.19,30.06,17,3,17,0.00
2013-6-8,69.5,59.3,52.6,51.1,48.4,46.1,80,68,50,30.23,30.14,10,1,10,0.00
2013-6-9,69.2,57.1,51.0,49.9,47.2,44.4,86,70,46,30.16,30.06,14,1,14,0.00
2013-6-10,71.4,59.0,48.1,49.9,46.8,43.6,85,66,40,30.08,29.92,10,1,11,0.00
2013-6-11,63.9,55.8,51.1,53.1,46.6,44.3,88,72,52,30.14,29.98,23,6,24,0.25
2013-6-12,66.8,57.3,51.2,49.6,47.0,43.3,85,70,45,30.18,30.14,19,5,19,0.00
2013-6-13,69.8,59.0,51.6,51.1,48.8,46.3,88,71,47,30.26,30.17,11,1,11,0.00
2013-6-14,67.0,57.9,53.1,50.4,48.2,46.5,86,71,52,30.27,30.09,16,4,18,0.00
2013-6-15,71.0,61.1,49.7,53.9,50.9,47.6,94,71,46,30.09,29.96,11,1,11,0.00
2013-6-16,73.2,62.3,53.9,56.8,53.0,50.0,92,72,55,30.12,30.03,16,3,16,0.00
2013-6-17,76.0,63.5,55.6,54.4,51.2,46.3,87,67,37,30.13,29.93,20,3,20,0.01
2013-6-18,73.2,62.3,54.9,53.7,49.0,41.4,91,65,34,30.01,29.91,18,4,18,0.00
2013-6-19,68.5,59.3,53.6,53.0,50.2,46.6,88,73,51,30.05,29.95,13,3,13,0.00
2013-6-20,59.7,55.2,52.2,54.7,51.0,48.6,96,86,73,30.15,29.99,16,3,16,0.50
2013-6-21,69.0,59.2,52.0,54.9,51.3,48.3,97,77,49,30.20,30.14,10,1,10,0.03
2013-6-22,78.3,65.2,52.0,56.4,52.0,45.7,95,66,38,30.16,29.89,11,1,11,0.00
2013-6-23,71.4,63.9,58.3,61.5,56.5,51.2,95,77,64,29.89,29.63,6,0,6,0.23
2013-6-24,67.3,60.7,55.1,59.1,55.0,52.7,96,82,61,29.74,29.61,22,5,26,0.09
2013-6-25,73.5,61.5,56.2,58.3,55.6,52.6,96,83,50,29.89,29.71,26,3,27,0.54
2013-6-26,69.4,62.4,57.3,60.6,57.0,54.8,95,83,66,30.11,29.88,12,2,16,0.07
2013-6-27,70.0,64.2,59.8,62.5,59.8,54.8,96,86,74,30.24,30.08,8,1,9,0.14
2013-6-28,86.6,71.7,58.5,65.1,61.2,57.3,96,72,40,30.23,30.07,13,1,13,0.00
2013-6-29,85.5,72.0,62.8,65.0,61.0,57.7,91,70,48,30.14,30.02,11,1,11,0.00
2013-6-30,89.8,75.0,58.3,65.2,60.6,54.3,88,63,40,30.05,29.88,10,1,12,0.00
2013-7-1,88.6,75.6,62.0,64.8,61.0,58.0,88,62,44,30.05,29.94,5,0,7,0.00
2013-7-2,80.3,70.2,59.0,61.8,56.2,50.9,90,63,40,30.15,30.05,14,1,14,0.00
2013-7-3,76.3,66.4,58.7,54.8,50.5,44.1,74,57,39,30.19,30.08,12,1,13,0.00
2013-7-4,71.5,61.8,56.3,54.2,52.3,49.9,87,72,51,30.17,30.06,14,2,14,0.00
2013-7-5,72.7,63.6,54.8,56.3,54.1,51.4,93,72,55,30.08,29.99,11,2,14,0.00
2013-7-6,77.2,66.1,54.8,56.6,54.0,47.8,95,68,38,30.02,29.90,11,1,11,0.00
2013-7-7,75.0,64.0,56.1,60.3,56.3,52.3,94,77,58,29.99,29.91,13,2,13,0.00
2013-7-8,79.5,64.3,54.7,59.5,55.0,52.0,91,74,44,30.14,29.98,13,3,13,0.00
2013-7-9,80.7,68.5,55.3,58.7,55.1,51.4,95,65,42,30.15,30.03,12,1,12,0.00
2013-7-10,72.0,61.5,55.9,56.7,53.3,49.6,91,75,58,30.11,29.99,14,2,14,0.00
2013-7-11,70.8,59.7,54.5,51.3,48.7,46.8,79,68,47,30.13,30.03,11,2,11,0.00
2013-7-12,68.5,58.9,52.6,53.5,49.8,46.7,81,72,58,30.15,30.05,9,1,10,0.00
2013-7-13,74.8,63.5,51.5,52.8,48.4,44.6,84,60,36,30.24,30.15,16,1,16,0.00
2013-7-14,81.0,66.7,51.2,54.4,48.6,43.1,89,55,27,30.18,30.02,18,1,18,0.00
2013-7-15,75.9,66.8,55.1,54.5,49.3,43.6,82,55,35,30.09,29.93,19,2,20,0.00
2013-7-16,83.1,72.2,61.8,57.0,50.0,43.9,65,46,34,29.94,29.83,17,2,17,0.00
2013-7-17,71.0,64.5,59.5,56.3,55.2,51.5,85,72,53,30.23,29.91,20,5,20,0.02
2013-7-18,77.6,65.4,57.4,57.9,55.5,53.3,88,72,50,30.27,30.16,9,0,9,0.00
2013-7-19,79.0,65.2,54.7,59.8,56.3,52.3,93,75,51,30.21,30.07,10,0,10,0.00
2013-7-20,75.9,61.8,53.6,60.1,55.6,51.9,96,82,56,30.13,30.00,13,1,13,0.00
2013-7-21,76.9,61.9,53.8,60.5,55.9,52.3,97,82,56,30.03,29.94,12,2,12,0.00
2013-7-22,79.2,64.0,54.7,59.8,56.2,53.4,97,78,48,30.11,29.98,11,2,12,0.00
2013-7-23,81.0,66.9,53.0,59.8,53.8,45.9,96,67,30,30.11,30.00,13,1,15,0.00
2013-7-24,81.7,69.5,54.4,57.8,52.4,45.3,92,58,29,30.09,30.02,12,1,12,0.00
2013-7-25,84.7,68.7,52.7,56.6,52.9,49.4,93,60,30,30.14,30.06,11,1,11,0.00
2013-7-26,83.8,68.9,53.3,56.0,51.1,43.8,91,56,30,30.19,30.10,11,1,11,0.00
2013-7-27,78.0,64.2,54.8,54.1,51.1,46.8,87,65,36,30.20,30.03,13,1,13,0.00
2013-7-28,66.4,58.7,52.5,55.1,52.5,50.5,94,80,65,30.07,29.99,18,5,18,0.00
2013-7-29,76.6,63.5,54.8,56.7,53.4,50.9,88,71,48,30.05,29.98,11,2,11,0.00
2013-7-30,75.3,62.8,54.3,58.3,54.8,52.0,93,77,51,30.17,30.04,13,3,13,0.00
2013-7-31,69.0,60.5,54.7,60.6,56.3,52.5,97,87,70,30.17,30.03,11,1,11,0.00
2013-8-1,65.8,59.7,54.3,56.2,54.4,52.3,94,83,69,30.10,30.07,19,5,19,0.00
2013-8-2,59.8,58.7,57.1,57.8,55.9,53.9,96,90,84,30.17,30.09,18,3,18,0.15
2013-8-3,74.3,63.7,57.3,60.4,57.4,55.4,97,82,58,30.17,30.09,11,1,11,0.00
2013-8-4,78.7,67.1,54.1,60.8,57.4,52.6,96,73,52,30.10,29.98,11,1,11,0.00
2013-8-5,85.2,70.3,55.8,60.4,57.6,53.6,95,67,38,30.05,29.96,10,0,10,0.00
2013-8-6,86.4,68.9,53.5,59.2,54.4,47.9,92,63,30,30.05,29.94,10,0,10,0.00
2013-8-7,85.9,68.4,54.1,59.1,55.2,50.8,95,66,32,30.05,29.98,12,1,12,0.00
2013-8-8,81.8,66.1,56.6,60.2,56.5,53.4,94,73,47,30.08,29.97,11,2,12,0.00
2013-8-9,81.3,68.3,54.9,58.5,56.1,52.5,94,67,42,29.99,29.87,11,0,11,0.00
2013-8-10,77.3,64.8,57.5,62.7,59.2,55.7,95,83,59,30.05,29.93,16,2,16,0.12
2013-8-11,75.5,63.4,56.3,58.1,54.9,52.6,90,75,52,30.11,30.02,12,2,12,0.00
2013-8-12,76.1,64.6,56.9,57.8,55.2,53.6,90,73,47,30.11,30.04,13,2,13,0.00
2013-8-13,81.0,66.7,56.7,56.9,55.2,52.8,91,68,39,30.14,29.96,11,1,11,0.00
2013-8-14,77.8,66.0,55.2,62.1,56.9,52.4,92,74,46,30.00,29.94,16,2,23,0.01
2013-8-15,68.6,64.8,60.4,64.6,62.0,59.0,96,91,83,30.03,29.96,12,1,12,0.04
2013-8-16,82.1,68.9,59.3,64.7,59.1,47.0,98,75,30,30.04,29.97,13,1,13,0.00
2013-8-17,76.7,67.3,61.3,60.8,57.6,54.3,84,71,57,30.11,30.04,16,4,16,0.00
2013-8-18,76.3,64.8,58.0,59.9,56.6,53.8,90,76,56,30.16,30.11,17,3,17,0.00
2013-8-23,72.8,71.5,70.7,57.6,56.6,55.9,62,59,57,29.92,29.91,20,9,20,0.00
2013-8-24,76.5,65.7,60.0,57.1,54.9,51.9,86,69,48,29.95,29.89,13,2,14,0.00
2013-8-25,74.1,64.2,55.9,58.0,54.0,51.6,87,70,50,29.98,29.90,7,0,7,0.00
2013-8-26,64.3,62.4,58.7,57.7,54.3,51.4,86,75,66,29.94,29.91,9,1,9,0.01
2013-9-9,74.0,66.6,58.9,60.2,58.8,56.6,93,77,61,30.03,30.01,12,1,12,0.00
2013-9-10,74.5,65.0,55.1,62.7,58.6,53.8,98,81,65,30.04,29.92,10,1,10,0.00
2013-9-11,83.7,67.9,59.2,62.0,57.9,55.3,92,71,48,29.97,29.90,8,1,10,0.00
2013-9-12,79.6,65.5,58.3,63.6,59.4,56.8,97,82,56,30.03,29.93,8,1,8,0.00
2013-9-13,64.7,61.4,58.0,60.6,59.0,55.9,98,92,85,30.01,29.91,8,1,8,0.00
2013-9-14,70.0,62.1,58.0,61.5,58.6,56.4,96,89,72,29.92,29.77,7,0,7,0.00
2013-9-15,63.9,59.3,55.4,61.1,57.8,54.5,98,95,89,29.86,29.75,16,2,16,0.19
2013-9-16,67.6,60.6,57.4,59.9,56.9,53.2,93,88,75,29.97,29.84,16,4,21,0.00
2013-9-17,62.9,58.6,56.1,55.0,52.8,51.3,89,81,68,29.98,29.91,7,0,7,0.00
2013-9-18,68.4,59.3,53.3,54.2,52.0,48.4,94,78,53,30.12,29.98,13,2,14,0.00
2013-9-19,78.5,64.1,49.7,54.5,50.1,46.3,94,64,34,30.08,29.80,9,0,9,0.00
2013-9-20,72.6,62.9,57.4,56.5,52.3,47.1,92,69,52,29.79,29.63,20,3,21,0.09
2013-9-21,69.9,60.0,54.6,56.6,53.9,52.1,94,81,57,29.76,29.68,16,3,16,0.00
2013-9-22,60.2,57.0,54.5,55.4,52.7,48.9,94,85,68,29.77,29.60,30,8,31,0.27
2013-9-23,59.9,55.6,53.4,54.1,51.5,47.2,93,86,76,30.00,29.77,28,6,28,0.26
2013-9-24,62.7,54.0,49.4,51.0,48.7,46.1,95,83,59,30.00,29.87,16,3,16,0.04
2013-9-25,60.6,52.1,48.7,51.0,47.8,45.0,96,86,64,30.07,29.90,14,1,14,0.06
2013-9-26,62.7,53.3,46.3,51.0,48.0,44.8,97,83,62,30.17,30.07,8,1,8,0.00
2013-9-27,55.7,53.8,51.2,52.4,50.0,47.3,92,87,81,30.16,29.88,26,6,26,0.09
2013-9-28,60.2,55.1,51.7,57.7,53.1,49.1,97,93,87,29.89,29.37,32,7,33,1.35
2013-9-29,56.1,53.0,51.6,51.6,49.2,46.9,94,87,79,29.59,29.19,36,8,37,0.64
2013-9-30,52.2,51.2,50.3,46.9,45.2,43.5,84,80,74,29.49,29.45,37,14,37,0.00
2013-10-4,63.7,56.5,50.3,49.2,46.8,42.4,92,71,51,30.45,30.38,7,1,7,0.01
2013-10-5,67.8,55.8,45.8,52.1,47.7,43.5,96,76,44,30.40,30.16,9,1,9,0.00
2013-10-6,71.0,57.6,48.0,52.9,48.4,42.4,98,74,41,30.17,29.91,22,3,22,0.04
2013-10-7,59.9,54.3,51.5,51.0,49.0,45.1,94,83,60,30.04,29.92,26,8,27,0.06
2013-10-8,56.4,50.6,47.0,49.3,45.7,41.9,93,84,61,30.11,30.00,16,2,16,0.11
2013-10-9,59.9,49.1,40.8,47.4,43.6,39.7,97,82,61,30.17,29.99,10,1,10,0.00
2013-10-10,58.4,51.5,47.2,49.5,47.0,44.1,94,85,67,30.11,29.97,9,1,9,0.01
2013-10-11,54.9,50.7,48.2,49.6,48.2,46.5,96,91,78,30.18,30.10,6,0,6,0.10
2013-10-12,56.2,50.3,47.0,49.9,47.4,44.6,96,90,76,30.25,30.10,14,1,14,0.03
2013-10-13,59.0,49.6,44.4,48.1,45.5,43.0,97,87,61,30.40,30.25,7,0,7,0.01
2013-10-14,59.6,48.4,40.1,49.2,44.3,39.3,98,87,61,30.47,30.40,6,0,7,0.01
2013-10-15,61.4,49.6,43.7,50.5,46.2,42.6,97,89,66,30.43,30.21,7,0,7,0.00
2013-10-16,54.9,50.1,46.2,49.1,47.2,44.8,96,90,80,30.24,30.19,10,1,11,0.00
2013-10-17,59.2,50.7,47.4,50.5,47.3,45.4,95,89,70,30.32,30.24,7,0,7,0.00
2013-10-18,53.9,47.5,43.0,50.4,45.9,42.2,98,94,84,30.28,30.19,6,0,6,0.01
2013-10-19,48.4,46.3,43.2,47.7,45.5,42.3,98,97,95,30.24,30.18,5,0,5,0.02
2013-10-20,49.3,47.0,45.3,47.4,45.8,44.2,97,96,92,30.25,30.19,5,0,5,0.00
2013-10-21,51.4,47.6,45.8,49.1,46.6,45.1,98,96,91,30.21,30.14,6,0,6,0.00
2013-10-22,54.7,47.7,44.8,50.5,46.6,44.1,98,96,85,30.16,30.07,5,0,5,0.01
2013-10-23,58.2,47.5,43.6,52.7,46.0,42.9,99,95,76,30.09,30.02,5,0,5,0.01
2013-10-24,48.9,46.4,43.3,48.2,45.7,42.5,98,98,97,30.17,30.06,4,0,4,0.01
2013-10-25,51.9,48.1,46.1,48.9,46.9,45.5,98,96,89,30.36,30.17,7,1,7,0.02
2013-10-26,53.6,49.5,46.7,47.8,46.1,45.1,97,88,80,30.37,30.23,10,1,11,0.00
2013-10-27,55.2,49.7,45.5,48.4,45.6,43.0,98,86,71,30.24,29.93,22,3,22,0.21
2013-10-28,55.6,51.3,46.5,44.6,37.4,32.2,91,60,44,29.99,29.92,19,3,19,0.00
2013-10-29,58.7,47.3,39.1,42.3,37.8,34.6,92,71,44,30.07,29.98,9,1,9,0.00
2013-10-30,54.7,48.0,40.8,46.4,41.2,37.4,92,78,65,30.16,30.06,25,4,25,0.02
2013-10-31,54.2,50.8,48.5,50.2,47.4,42.9,93,88,75,30.29,30.13,26,4,26,0.00
2013-11-1,59.9,54.1,51.1,50.9,49.1,46.8,95,84,65,30.31,29.88,9,1,9,0.00
2013-11-2,53.7,49.5,43.9,50.1,44.6,38.5,97,83,64,29.92,29.51,50,8,51,0.47
2013-11-3,53.1,44.6,40.8,42.7,40.0,37.5,94,84,62,30.15,29.92,13,1,13,0.01
2013-11-4,48.2,43.4,37.5,40.9,38.1,32.9,97,82,56,30.23,30.09,6,1,6,0.06
2013-11-5,50.4,46.3,43.0,48.1,44.5,40.3,97,94,88,30.30,30.05,17,1,17,0.02
2013-11-6,51.7,47.3,43.3,46.1,44.3,41.9,96,90,76,30.36,30.06,8,0,8,0.07
2013-11-7,50.0,48.5,47.4,48.0,46.3,43.9,96,92,82,30.06,29.75,34,7,34,0.75
2013-11-8,54.1,48.8,46.0,45.9,43.8,42.8,90,83,71,30.19,30.00,14,4,20,0.00
2013-11-9,50.7,45.5,40.8,44.4,42.5,39.3,97,90,74,30.19,30.11,8,0,8,0.08
2013-11-10,48.3,45.9,43.8,45.3,43.9,42.9,97,93,88,30.19,30.13,12,2,12,0.04
2013-11-11,58.6,49.0,44.3,47.6,44.3,42.4,94,84,65,30.20,30.04,10,1,10,0.00
2013-11-12,57.6,52.3,48.3,52.9,48.7,43.2,97,88,70,30.39,30.06,23,5,23,0.13
2013-11-13,53.9,51.6,48.1,49.5,48.1,45.8,93,88,81,30.47,30.34,29,4,29,0.00
2013-11-14,49.1,46.6,43.9,47.3,45.2,42.3,97,95,91,30.34,30.09,9,0,9,0.04
2013-11-15,48.2,44.7,42.2,46.2,42.5,39.3,97,92,86,30.10,29.36,42,7,42,0.12
2013-11-16,47.4,43.7,40.1,43.6,38.7,36.5,97,83,70,29.81,29.38,20,4,20,0.00
2013-11-17,50.4,46.5,42.4,46.2,43.2,37.6,92,88,82,29.93,29.81,31,10,31,0.00
2013-11-18,51.6,48.9,46.9,50.2,47.3,44.1,97,94,87,29.93,29.59,24,5,24,0.68
2013-11-19,52.1,43.1,36.8,50.6,36.9,22.7,96,80,50,30.11,29.58,28,3,30,0.17
2013-11-20,42.1,36.8,32.9,31.1,27.6,23.8,84,70,51,30.55,30.11,13,2,13,0.00
2013-11-21,42.8,35.2,30.0,29.3,27.0,24.0,87,72,54,30.71,30.55,9,1,9,0.00
2013-11-22,44.4,36.9,30.2,32.4,28.9,26.1,87,73,55,30.69,30.49,11,2,11,0.00
2013-11-23,50.4,40.8,34.7,38.9,33.1,26.1,85,74,59,30.49,30.24,12,1,12,0.00
2013-11-24,50.0,41.7,35.9,42.1,37.3,32.9,93,85,72,30.29,30.20,6,0,6,0.00
2013-11-25,54.2,41.9,36.0,42.6,38.4,35.0,98,88,58,30.36,30.29,5,0,5,0.00
2013-11-26,51.9,44.0,36.5,42.3,38.4,35.7,98,82,59,30.31,30.13,7,1,7,0.01
2013-11-27,54.7,46.5,41.3,45.5,40.1,35.6,90,78,60,30.14,30.00,8,0,8,0.00
2013-11-28,48.9,41.4,36.0,46.3,39.9,35.0,98,95,86,30.22,30.06,6,1,6,0.01
2013-11-29,46.9,44.0,40.4,44.9,42.2,39.2,97,93,88,30.35,30.21,10,1,10,0.00
2013-11-30,49.3,47.6,44.9,46.8,44.5,42.6,95,89,82,30.37,30.12,27,7,27,0.04
2013-12-1,52.7,49.8,41.8,50.6,46.9,37.8,97,90,84,30.12,29.77,35,9,35,0.01
2013-12-2,43.9,38.8,34.8,37.8,34.0,30.5,95,83,61,30.10,29.84,15,2,15,0.07
2013-12-3,38.1,34.1,30.4,30.1,25.3,21.8,85,70,53,30.35,30.10,18,2,18,0.00
2013-12-4,38.1,30.9,26.0,27.7,24.7,20.5,92,78,64,30.40,30.33,7,1,7,0.00
2013-12-5,32.7,28.5,25.8,25.2,21.2,13.2,93,75,52,30.36,30.23,9,1,9,0.00
2013-12-6,32.0,26.8,22.4,15.1,9.9,6.3,61,49,37,30.28,30.18,11,2,11,0.00
2013-12-7,29.2,23.4,19.3,13.1,7.4,1.2,71,51,32,30.47,30.27,11,2,11,0.00
2013-12-8,32.8,25.8,20.3,20.3,16.4,11.0,77,67,52,30.62,30.46,6,1,6,0.00
2013-12-9,32.7,29.1,24.1,28.1,22.1,16.2,86,75,65,30.63,30.53,5,1,7,0.00
2013-12-10,38.0,35.0,32.2,34.2,31.2,27.0,90,86,81,30.54,30.46,8,1,8,0.00
2013-12-11,39.2,35.2,30.9,35.8,32.6,28.8,95,90,83,30.46,30.21,4,0,4,0.00
2013-12-12,41.4,38.1,33.5,40.2,35.7,32.2,97,91,77,30.21,30.09,17,3,18,0.13
2013-12-13,47.2,44.6,41.3,45.2,43.2,40.2,97,95,91,30.46,30.17,17,4,17,0.01
2013-12-14,47.7,46.0,44.1,44.3,43.0,41.7,94,90,86,30.48,30.35,18,4,18,0.00
2013-12-15,49.2,47.2,45.2,47.5,45.6,43.1,97,94,87,30.49,30.35,25,5,25,0.06
2013-12-16,49.0,44.0,39.4,45.2,42.5,38.3,98,95,85,30.53,30.31,5,0,5,0.01
2013-12-17,43.2,40.7,39.1,41.6,39.7,38.6,98,96,91,30.31,30.15,16,2,16,0.00
2013-12-18,43.0,40.8,36.5,41.1,36.5,31.0,96,85,64,30.20,30.06,16,2,16,0.05
2013-12-19,39.6,35.2,31.9,34.6,26.1,22.4,91,69,54,30.39,30.19,14,1,14,0.00
2013-12-20,42.9,36.1,30.9,42.4,33.7,24.9,98,91,70,30.24,29.75,21,4,35,0.24
2013-12-21,43.6,41.2,38.6,43.0,40.6,37.8,98,98,97,30.20,29.89,8,1,8,0.18
2013-12-22,48.4,46.2,43.4,47.8,45.6,42.8,99,98,95,30.33,30.19,27,3,27,0.27
2013-12-23,52.0,47.5,41.8,48.2,44.7,39.2,97,90,77,30.55,30.16,38,8,38,0.00
2013-12-24,47.4,40.9,36.5,40.9,38.2,35.0,97,90,76,30.66,30.55,8,1,8,0.00
2013-12-25,41.0,35.3,30.7,38.3,33.7,29.9,98,94,80,30.57,30.43,5,1,5,0.01
2013-12-26,42.7,37.1,33.9,40.0,36.0,33.1,98,96,87,30.45,30.24,5,0,5,0.01
2013-12-27,44.5,40.5,35.3,43.1,39.5,34.8,99,96,88,30.41,30.16,21,1,21,0.04
2013-12-28,46.9,42.7,36.4,44.1,41.5,35.3,98,96,84,30.57,30.41,5,0,5,0.01
2013-12-29,42.0,38.9,35.4,40.3,37.9,34.6,98,96,93,30.52,30.35,6,1,6,0.01
2013-12-30,43.2,40.8,38.3,41.4,39.7,37.8,98,96,91,30.36,30.17,15,1,15,0.00
2013-12-31,44.3,43.1,40.8,43.0,41.6,40.0,98,95,86,30.42,30.23,11,1,11,0.01
2014-1-1,43.6,40.8,37.9,42.1,39.8,37.4,99,97,92,30.45,30.29,5,0,5,0.01
2014-1-2,49.0,44.6,41.3,44.6,42.1,40.2,98,91,75,30.29,29.93,27,5,29,0.41